Powrót do katalogu

STARLINK-34547

AktywnyŁącznośćVLEO
NORAD 64777·PAYLOAD·🇺🇸 United States

Wystrzelony Jul 8, 2025 z Cape Canaveral Space Force Station

Loading…

Następne Przeloty (najbliższe 24 godziny)

TLE

ŚwieżeSource: CelesTrak SupGP

Epoka: Sep 14, 2026, 22:52 UTC

1 64777C 25147Y   26257.95326389  .00031122  00000+0  91985-3 0  2577
2 64777  53.1580  79.3858 0001201  83.3695 103.2202 15.34363262    19

Śledź STARLINK-34547 w czasie rzeczywistym z AllMySat

Download on the App Store